ラインムート第2彗星

44P/Reinmuth 2 (2022)

English version
Home page
Updated on July 16, 2022

---------------------------------------------------------------------

・ プロフィール

・ 軌道要素

Epoch 2022 Aug. 9.0 TT = JDT 2459800.5
T 2022 Apr. 23.18646 TT                                 Rudenko
q   2.1125681            (2000.0)            P               Q
n   0.13895041     Peri.   58.07397     +0.95942530     +0.26419365
a   3.6917264      Node   286.44756     -0.28069800     +0.86187233
e   0.4277560      Incl.    5.89560     -0.02667820     +0.43287158
P   7.09
From 927 observations 2008 July 2-2022 June 6, mean residual 0".7.
     Nongravitational parameters A1 = +0.11, A2 = -0.0649.

・ 星図

・ 光度変化

        m1 = 10.6 + 5 logΔ + 13.0 log r  [ ,0]  (              〜2022年 4月23日)
        m1 = 11.6 + 5 logΔ + 10.0 log r  [0, ]  (2022年 4月23日〜              )

---------------------------------------------------------------------

軌道要素はM.P.E.C. 2022-L66に掲載されたものです。
星図はステラナビゲータ Ver.10 (アストロアーツ) で作成したものです。
光度グラフはComet for Windowsで作成したものです。

---------------------------------------------------------------------

Copyright(C) Seiichi Yoshida (comet@aerith.net). All rights reserved.